Hauptseite
METAR-TAF:

METAR-TAF

Flughäfen :

Lleida-Alguaire

Lleida, Spanien

Breite: 41-43-40N, Länge: 000-32-09E, Höhe: 350 m

Beobachtung

Neuester Wetterbericht von vor 34 Minuten, um 20:00 UTC
Wind 5 kt aus Ost
Temperatur 7°C
Luftfeuchtigkeit 100%
Luftdruck 1021 hPa
Sichtweite: 2000 m
Geschlossene Wolkendecke in der Höhe von 100 ft
feuchter Dunst

METAR: LEDA 082000Z AUTO 10005KT 2000 BR OVC001 07/07 Q1021

Zeit: 21:34 (20:34 UTC)


TAF: fehlend

Wetterbeobachtungen und Prognosen von mehr als 4000 Flughäfen (METAR und TAF Bericht).

Die verfügbaren Stationen werden durch gelbe und rote Markierungen auf der Karte dargestellt.

Führen Sie die Maus auf sie, um den Namen der Station zu sehen.

Darauf klicken, um die Beobachtung von Wetterbeobachtungen und Prognosen zu sehen.

Um die Karte zu ändern : klicken Sie auf den grünen Tasten mit einem schwarzen Kreuz Zum Vergrößern, auf den grünen Button mit einem Gedankenstrich zu verkleinern, oder auf die grünen Pfeile für benachbarte Karten.


METAR-TAF: